When you browse on this site, cookies collect data to enhance your experience and personalize the content and advertising you see.
Visit our Privacy Policy to learn more. By continuing to use the site, you agree to this use of cookies and data.
  • în România
  • Lista ţărilor
  • Pe 7 zile
  • Temperatura apei
  • Meteo pe hartă
  • Widget-uri
  • user-avatar
    Intrare

    Meteo pe oră la Mendoza

    Astăzi, 8 Decembrie, Duminică

    Timp Temperatura Precipitaţii Vânt Presiune Umiditate
    00:00 +25°C° 0.1 mm 4 m/s 697 mmHg 49%
    01:00 +24°C° 0 mm 2 m/s 697 mmHg 52%
    02:00 +23°C° 0.1 mm 2 m/s 697 mmHg 53%
    03:00 +23°C° 0.1 mm 2 m/s 697 mmHg 54%
    04:00 +23°C° 0.1 mm 2 m/s 697 mmHg 55%
    05:00 +24°C° 0 mm 2 m/s 697 mmHg 50%
    06:00 +26°C° 0 mm 2 m/s 698 mmHg 44%
    07:00 +27°C° 0 mm 2 m/s 698 mmHg 43%
    08:00 +28°C° 0 mm 2 m/s 698 mmHg 40%
    09:00 +29°C° 0 mm 3 m/s 698 mmHg 36%
    10:00 +30°C° 0 mm 3 m/s 698 mmHg 33%
    11:00 +31°C° 0.1 mm 3 m/s 698 mmHg 30%
    12:00 +33°C° 0.1 mm 4 m/s 697 mmHg 26%
    13:00 +34°C° 0.1 mm 4 m/s 697 mmHg 22%
    14:00 +34°C° 0.1 mm 3 m/s 697 mmHg 22%
    15:00 +34°C° 0.1 mm 3 m/s 697 mmHg 21%
    16:00 +35°C° 0.1 mm 2 m/s 696 mmHg 21%
    17:00 +34°C° 0 mm 2 m/s 697 mmHg 22%
    18:00 +33°C° 0 mm 3 m/s 697 mmHg 24%
    19:00 +31°C° 0 mm 3 m/s 698 mmHg 25%
    20:00 +29°C° 0.3 mm 3 m/s 698 mmHg 31%
    21:00 +28°C° 0.3 mm 3 m/s 698 mmHg 37%
    22:00 +26°C° 0.3 mm 4 m/s 698 mmHg 42%
    23:00 +26°C° 0.1 mm 3 m/s 698 mmHg 43%

    Mâine, 9 Decembrie, Luni

    Timp Temperatura Precipitaţii Vânt Presiune Umiditate
    00:00 +26°C° 0.1 mm 2 m/s 697 mmHg 44%
    01:00 +26°C° 0.1 mm 1 m/s 697 mmHg 45%
    02:00 +25°C° 0 mm 1 m/s 697 mmHg 46%
    03:00 +25°C° 0 mm 1 m/s 697 mmHg 47%
    04:00 +24°C° 0 mm 1 m/s 697 mmHg 48%
    05:00 +26°C° 0 mm 1 m/s 697 mmHg 43%
    06:00 +27°C° 0 mm 1 m/s 698 mmHg 38%
    07:00 +29°C° 0 mm 1 m/s 698 mmHg 33%
    08:00 +30°C° 0 mm 2 m/s 698 mmHg 29%
    09:00 +33°C° 0 mm 4 m/s 698 mmHg 26%
    10:00 +35°C° 0 mm 5 m/s 698 mmHg 22%
    11:00 +35°C° 0 mm 5 m/s 698 mmHg 21%
    12:00 +36°C° 0 mm 6 m/s 697 mmHg 19%
    13:00 +38°C° 0 mm 6 m/s 697 mmHg 18%
    14:00 +37°C° 0 mm 5 m/s 696 mmHg 18%
    15:00 +37°C° 0 mm 4 m/s 696 mmHg 17%
    16:00 +37°C° 0 mm 4 m/s 695 mmHg 17%
    17:00 +35°C° 0.3 mm 4 m/s 696 mmHg 21%
    18:00 +34°C° 0.3 mm 4 m/s 696 mmHg 25%
    19:00 +32°C° 0.3 mm 4 m/s 696 mmHg 28%
    20:00 +30°C° 0 mm 4 m/s 696 mmHg 29%
    21:00 +30°C° 0 mm 3 m/s 696 mmHg 30%
    22:00 +29°C° 0 mm 3 m/s 697 mmHg 31%
    23:00 +29°C° 0 mm 2 m/s 696 mmHg 33%

    Poimâine, 10 Decembrie, Marţi

    Timp Temperatura Precipitaţii Vânt Presiune Umiditate
    00:00 +28°C° 0 mm 1 m/s 696 mmHg 34%
    01:00 +27°C° 0 mm 1 m/s 696 mmHg 35%
    02:00 +27°C° 0 mm 1 m/s 696 mmHg 36%
    03:00 +26°C° 0 mm 1 m/s 696 mmHg 36%
    04:00 +26°C° 0 mm 1 m/s 696 mmHg 36%
    05:00 +27°C° 0 mm 3 m/s 697 mmHg 33%
    06:00 +28°C° 0 mm 5 m/s 697 mmHg 30%
    07:00 +29°C° 0 mm 7 m/s 698 mmHg 27%
    08:00 +32°C° 0 mm 7 m/s 698 mmHg 24%
    09:00 +33°C° 0 mm 6 m/s 698 mmHg 22%
    10:00 +34°C° 0 mm 6 m/s 698 mmHg 19%
    11:00 +35°C° 0 mm 5 m/s 697 mmHg 19%
    12:00 +35°C° 0 mm 4 m/s 697 mmHg 18%
    13:00 +36°C° 0 mm 3 m/s 696 mmHg 18%
    14:00 +36°C° 0 mm 2 m/s 696 mmHg 18%
    15:00 +36°C° 0 mm 2 m/s 695 mmHg 17%
    16:00 +37°C° 0 mm 2 m/s 695 mmHg 17%
    17:00 +36°C° 0 mm 2 m/s 695 mmHg 18%
    18:00 +35°C° 0 mm 2 m/s 695 mmHg 20%
    19:00 +34°C° 0 mm 2 m/s 695 mmHg 21%
    20:00 +32°C° 0 mm 2 m/s 695 mmHg 22%
    21:00 +33°C° 0 mm 3 m/s 696 mmHg 23%
    22:00 +31°C° 0 mm 3 m/s 696 mmHg 24%
    23:00 +30°C° 0 mm 3 m/s 695 mmHg 27%

    11 Decembrie, Miercuri

    Timp Temperatura Precipitaţii Vânt Presiune Umiditate
    00:00 +29°C° 0 mm 3 m/s 695 mmHg 29%
    01:00 +29°C° 0 mm 2 m/s 694 mmHg 31%
    02:00 +28°C° 0 mm 3 m/s 694 mmHg 31%
    03:00 +28°C° 0 mm 4 m/s 694 mmHg 32%
    04:00 +27°C° 0 mm 5 m/s 694 mmHg 32%
    05:00 +28°C° 0 mm 6 m/s 694 mmHg 30%
    06:00 +28°C° 0 mm 7 m/s 694 mmHg 28%
    07:00 +28°C° 0 mm 8 m/s 695 mmHg 26%
    08:00 +29°C° 0 mm 8 m/s 695 mmHg 24%
    09:00 +30°C° 0 mm 7 m/s 695 mmHg 21%
    10:00 +32°C° 0 mm 7 m/s 695 mmHg 19%
    11:00 +33°C° 0 mm 7 m/s 695 mmHg 18%
    12:00 +34°C° 0 mm 6 m/s 695 mmHg 17%
    13:00 +35°C° 0 mm 6 m/s 694 mmHg 16%
    14:00 +35°C° 0 mm 5 m/s 694 mmHg 15%
    15:00 +35°C° 0 mm 5 m/s 694 mmHg 15%
    16:00 +35°C° 0 mm 5 m/s 694 mmHg 14%
    17:00 +34°C° 0 mm 4 m/s 694 mmHg 15%
    18:00 +31°C° 0 mm 3 m/s 694 mmHg 17%
    19:00 +30°C° 0 mm 3 m/s 695 mmHg 18%
    20:00 +29°C° 0 mm 3 m/s 695 mmHg 20%
    21:00 +28°C° 0 mm 2 m/s 696 mmHg 22%
    22:00 +28°C° 0 mm 2 m/s 697 mmHg 23%
    23:00 +26°C° 0 mm 2 m/s 697 mmHg 26%

    12 Decembrie, Joi

    Timp Temperatura Precipitaţii Vânt Presiune Umiditate
    00:00 +25°C° 0 mm 2 m/s 697 mmHg 29%
    01:00 +23°C° 0 mm 2 m/s 697 mmHg 32%
    02:00 +21°C° 0 mm 3 m/s 697 mmHg 32%
    03:00 +21°C° 0 mm 3 m/s 697 mmHg 32%
    04:00 +20°C° 0 mm 4 m/s 698 mmHg 31%
    05:00 +20°C° 0 mm 4 m/s 698 mmHg 29%
    06:00 +20°C° 0 mm 4 m/s 698 mmHg 27%
    07:00 +20°C° 0 mm 4 m/s 698 mmHg 25%
    08:00 +21°C° 0 mm 4 m/s 698 mmHg 23%
    09:00 +22°C° 0 mm 4 m/s 698 mmHg 21%
    10:00 +24°C° 0 mm 3 m/s 698 mmHg 20%
    11:00 +25°C° 0 mm 3 m/s 698 mmHg 19%
    12:00 +26°C° 0 mm 4 m/s 697 mmHg 18%
    13:00 +27°C° 0 mm 4 m/s 697 mmHg 17%
    14:00 +28°C° 0 mm 4 m/s 697 mmHg 17%
    15:00 +28°C° 0 mm 4 m/s 697 mmHg 16%
    16:00 +28°C° 0 mm 4 m/s 696 mmHg 16%
    17:00 +27°C° 0 mm 4 m/s 697 mmHg 18%
    18:00 +26°C° 0 mm 4 m/s 697 mmHg 19%
    19:00 +25°C° 0 mm 4 m/s 698 mmHg 21%
    20:00 +24°C° 0 mm 3 m/s 698 mmHg 22%
    21:00 +23°C° 0 mm 2 m/s 698 mmHg 23%
    22:00 +21°C° 0 mm 2 m/s 698 mmHg 24%
    23:00 +21°C° 0 mm 2 m/s 698 mmHg 25%

    13 Decembrie, Vineri

    Timp Temperatura Precipitaţii Vânt Presiune Umiditate
    00:00 +21°C° 0 mm 1 m/s 697 mmHg 26%
    01:00 +20°C° 0 mm 1 m/s 697 mmHg 27%
    02:00 +20°C° 0 mm 1 m/s 696 mmHg 27%
    03:00 +18°C° 0 mm 2 m/s 696 mmHg 28%
    04:00 +18°C° 0 mm 2 m/s 696 mmHg 29%
    05:00 +19°C° 0 mm 2 m/s 696 mmHg 26%
    06:00 +21°C° 0 mm 2 m/s 696 mmHg 24%
    07:00 +23°C° 0 mm 2 m/s 697 mmHg 21%
    08:00 +25°C° 0 mm 3 m/s 696 mmHg 20%
    09:00 +26°C° 0 mm 3 m/s 696 mmHg 18%
    10:00 +28°C° 0 mm 4 m/s 696 mmHg 17%
    11:00 +29°C° 0 mm 3 m/s 696 mmHg 16%
    12:00 +30°C° 0 mm 3 m/s 695 mmHg 16%
    13:00 +31°C° 0 mm 3 m/s 695 mmHg 15%
    14:00 +31°C° 0 mm 3 m/s 695 mmHg 15%
    15:00 +32°C° 0 mm 2 m/s 694 mmHg 14%
    16:00 +32°C° 0 mm 2 m/s 694 mmHg 14%
    17:00 +31°C° 0 mm 2 m/s 694 mmHg 15%
    18:00 +30°C° 0 mm 2 m/s 695 mmHg 17%
    19:00 +29°C° 0 mm 2 m/s 695 mmHg 18%
    20:00 +28°C° 0 mm 2 m/s 695 mmHg 20%
    21:00 +27°C° 0 mm 2 m/s 695 mmHg 21%
    22:00 +26°C° 0 mm 2 m/s 696 mmHg 23%
    23:00 +26°C° 0 mm 3 m/s 696 mmHg 23%
    Arată mai mult